FW6303 Weather Reports


time (UTC)temp
C
wind
direction
speed
KPH
gust
KPH
rain 1hr
cm
rain 24hr
cm
rain mn
cm
humidity
%
barometer
mb
20260905232023 22 69 1.6 6.4 1.09 1.09 1.09 91 1012.7
20260905231026 23 338 20.9 66.0 0.53 0.53 0.53 86 1013.4
20260905230042 28 2 14.5 29.0 0.00 0.00 0.00 66 1013.2
20260905225026 35 355 11.3 25.7 0.00 0.00 0.00 45 1012.5
20260905224021 35 69 0.0 3.2 0.00 0.00 0.00 45 1011.5
20260905223030 35 80 0.0 1.6 0.00 0.00 0.00 44 1011.5
20260905222018 36 67 1.6 3.2 0.00 0.00 0.00 42 1011.5
20260905221029 37 58 1.6 4.8 0.00 0.00 0.00 39 1011.4
20260905220022 37 67 0.0 1.6 0.00 0.00 0.00 38 1011.4
20260905215025 37 22 1.6 4.8 0.00 0.00 0.00 37 1011.3
20260905214017 37 68 1.6 3.2 0.00 0.00 0.00 37 1011.2
20260905213031 38 42 1.6 3.2 0.00 0.00 0.00 36 1011.2
20260905212022 38 75 1.6 4.8 0.00 0.00 0.00 37 1011.2
20260905211029 38 55 3.2 4.8 0.00 0.00 0.00 36 1011.4
20260905210022 38 48 3.2 4.8 0.00 0.00 0.00 36 1011.6
20260905205026 38 80 1.6 4.8 0.00 0.00 0.00 37 1011.7
20260905204019 38 30 1.6 4.8 0.00 0.00 0.00 37 1011.8
20260905203030 38 51 3.2 4.8 0.00 0.00 0.00 35 1011.9
20260905202023 37 106 1.6 3.2 0.00 0.00 0.00 36 1012.1
20260905201029 38 65 1.6 4.8 0.00 0.00 0.00 36 1012.2
20260905200021 38 97 1.6 4.8 0.00 0.00 0.00 37 1012.4
20260905195029 37 102 1.6 4.8 0.00 0.00 0.00 38 1012.6
20260905194019 37 94 1.6 3.2 0.00 0.00 0.00 38 1012.7
20260905193027 38 34 3.2 6.4 0.00 0.00 0.00 36 1012.6
20260905192018 37 84 1.6 4.8 0.00 0.00 0.00 37 1012.8
20260905191026 36 85 1.6 6.4 0.00 0.00 0.00 40 1012.9
20260905190017 37 53 1.6 3.2 0.00 0.00 0.00 38 1013.0
20260905185046 36 85 1.6 3.2 0.00 0.00 0.00 39 1013.3
20260905184041 36 85 1.6 6.4 0.00 0.00 0.00 40 1013.4
20260905183029 36 76 1.6 4.8 0.00 0.00 0.00 41 1013.5
20260905182018 37 76 0.0 1.6 0.00 0.00 0.00 39 1013.7
20260905181030 36 47 3.2 4.8 0.00 0.00 0.00 41 1013.7
20260905180022 37 79 1.6 4.8 0.00 0.00 0.00 40 1013.8
20260905175025 36 42 1.6 4.8 0.00 0.00 0.00 41 1014.0
20260905174018 36 133 1.6 4.8 0.00 0.00 0.00 42 1014.1
20260905173026 35 63 0.0 3.2 0.00 0.00 0.00 44 1014.4
20260905172019 35 83 1.6 9.7 0.00 0.00 0.00 44 1014.4
20260905171029 36 35 3.2 6.4 0.00 0.00 0.00 44 1014.5
20260905170021 35 96 0.0 3.2 0.00 0.00 0.00 45 1014.5
20260905165029 35 46 1.6 6.4 0.00 0.00 0.00 47 1014.5
20260905164018 35 9 4.8 11.3 0.00 0.00 0.00 46 1014.7
20260905163049 34 78 1.6 9.7 0.00 0.00 0.00 49 1014.7
20260905162022 34 52 1.6 4.8 0.00 0.00 0.00 48 1015.0
20260905161051 35 45 3.2 6.4 0.00 0.00 0.00 46 1015.2
20260905160021 35 111 1.6 3.2 0.00 0.00 0.00 48 1015.2
20260905155048 33 62 1.6 4.8 0.00 0.00 0.00 51 1015.4
20260905154020 33 54 3.2 4.8 0.00 0.00 0.00 51 1015.4
20260905153030 33 31 3.2 6.4 0.00 0.00 0.00 51 1015.6
20260905152122 32 66 1.6 3.2 0.00 0.00 0.00 53 1015.5
20260905151029 32 66 1.6 4.8 0.00 0.00 0.00 53 1015.7
20260905150022 32 61 1.6 3.2 0.00 0.00 0.00 56 1015.5
20260905145028 31 55 1.6 4.8 0.00 0.00 0.00 56 1015.8
20260905144020 31 55 1.6 4.8 0.00 0.00 0.00 57 1015.7
20260905143052 31 69 1.6 3.2 0.00 0.00 0.00 58 1015.5
20260905142101 30 82 1.6 3.2 0.00 0.00 0.00 60 1015.7
20260905141029 30 61 1.6 3.2 0.00 0.00 0.00 61 1015.8
20260905140022 29 63 1.6 3.2 0.00 0.00 0.00 63 1015.8
20260905135030 29 55 1.6 4.8 0.00 0.00 0.00 63 1015.9
20260905134018 29 50 3.2 4.8 0.00 0.00 0.00 64 1015.8
20260905133027 28 81 0.0 1.6 0.00 0.00 0.00 67 1015.8
20260905132020 27 72 1.6 3.2 0.00 0.00 0.00 70 1015.9
20260905131025 27 76 1.6 1.6 0.00 0.00 0.00 73 1016.1
20260905130018 26 72 0.0 1.6 0.00 0.00 0.00 75 1016.1
20260905125026 26 75 0.0 1.6 0.00 0.00 0.00 77 1016.1
20260905124017 26 77 1.6 1.6 0.00 0.00 0.00 79 1015.9